Tracking 35237 objects as of 5-Sep-2026
HD Live streaming from Space Station
objects crossing your sky now

ZORKIY-2M-6

Track ZORKIY-2M-6 now!
10-day predictions
ZORKIY-2M-6 is classified as:


NORAD ID: 59774
Int'l Code: 2024-092B
Launch date: May 16, 2024
Source: Commonwealth of Independent States (former USSR) (CIS)
Launch site: PLESETSK MISSILE AND SPACE COMPLEX (PKMTR)

Uplink (MHz):
Downlink (MHz): 401.005
Beacon (MHz):
Mode: 2k4 GMSK_USP
Call sign:
Status: Unknown

Your satellite tracking list
Your tracking list is empty




NASA's NSSDC Master Catalog

Two Line Element Set (TLE):
1 59774U 24092B   26247.85984080  .00005977  00000-0  20836-3 0  9992
2 59774  97.6582  19.2654 0007145 259.4912 100.5523 15.30018879127713
Source of the keplerian elements: AFSPC